Weather History for Hawthorne, CA

Change the Weather History Date:

Saturday, October 26, 2013

  Actual Average Record
Temperature  
Mean Temperature 64 °F -  
Max Temperature 71 °F 73 °F 91 °F (1983)
Min Temperature 57 °F 57 °F 49 °F (1945)
Degree Days  
Heating Degree Days 2    
Growing Degree Days 14 (Base 50)    
Moisture  
Dew Point 56 °F    
Average Humidity 81    
Maximum Humidity 94    
Minimum Humidity 61    
Precipitation  
Precipitation 0.00 in - - ()
Sea Level Pressure  
Sea Level Pressure 30.04 in    
Wind  
Wind Speed 2 mph (West)    
Max Wind Speed 10 mph    
Max Gust Speed -    
Visibility 4 miles    
Events Fog    
Averages and records for this station are not official NWS values.
T = Trace of Precipitation, MM = Missing Value Source: NWS Daily Summary

Daily Weather History Graph

Daily Weather History Graph

Search for Another Location

Airport:

Trip Planner

Search our weather history database for the weather conditions in past years. The results will help you decide how hot, cold, wet, or windy it might be!

Date:

Astronomy

Oct. 26, 2013 Rise Set
Actual Time 7:07 AM PDT 6:06 PM PDT
Civil Twilight 6:42 AM PDT 6:31 PM PDT
Nautical Twilight 6:12 AM PDT 7:01 PM PDT
Astronomical Twilight 5:43 AM PDT 7:30 PM PDT
Moon No Moon Rise 1:24 PM PDT (10/26)
Length of Visible Light 11h 49m
Length of Day
10h 58m
Waning Gibbous, 52% of the Moon is Illuminated
Oct 26
Waning Gibbous
Oct 26
Last Quarter
Nov 3
New
Nov 9
First Quarter
Nov 17
Full

Hourly Weather History & Observations

Time (PDT) Temp. Dew Point Humidity Pressure Visibility Wind Dir Wind Speed Gust Speed Precip Events Conditions
12:53 AM 61.0 °F 55.9 °F 83% 30.07 in 6.0 mi Calm Calm - N/A   Haze
1:29 AM 60.8 °F 57.2 °F 88% 30.07 in 5.0 mi WSW 3.5 mph - N/A   Partly Cloudy
1:50 AM 60.8 °F 57.2 °F 88% 30.08 in 4.0 mi Calm Calm - N/A   Mostly Cloudy
1:53 AM 61.0 °F 57.0 °F 87% 30.08 in 4.0 mi Calm Calm - N/A   Mostly Cloudy
2:26 AM 60.8 °F 57.2 °F 88% 30.08 in 4.0 mi West 3.5 mph - N/A   Overcast
2:53 AM 60.1 °F 57.0 °F 90% 30.07 in 4.0 mi WSW 4.6 mph - N/A   Overcast
3:53 AM 60.1 °F 57.0 °F 90% 30.06 in 3.0 mi Calm Calm - N/A   Overcast
4:49 AM 60.8 °F 55.4 °F 82% 30.06 in 2.5 mi Calm Calm - N/A   Overcast
4:53 AM 60.1 °F 55.9 °F 86% 30.06 in 2.5 mi Calm Calm - N/A   Overcast
5:16 AM 59.0 °F 55.4 °F 88% 30.07 in 1.2 mi Calm Calm - N/A   Overcast
5:53 AM 59.0 °F 55.9 °F 90% 30.07 in 2.0 mi Calm Calm - N/A   Overcast
6:03 AM 59.0 °F 55.4 °F 88% 30.07 in 1.8 mi Calm Calm - N/A   Overcast
6:53 AM 59.0 °F 55.9 °F 90% 30.08 in 1.2 mi Calm Calm - N/A   Overcast
7:37 AM 59.0 °F 55.4 °F 88% 30.08 in 0.8 mi Calm Calm - N/A   Overcast
7:53 AM 59.0 °F 55.9 °F 90% 30.09 in 0.5 mi Calm Calm - N/A Fog Fog
8:53 AM 59.0 °F 55.9 °F 90% 30.10 in 0.8 mi Calm Calm - N/A   Overcast
9:07 AM 57.2 °F 55.4 °F 94% 30.10 in 1.0 mi Calm Calm - N/A   Overcast
9:53 AM 60.1 °F 55.9 °F 86% 30.09 in 1.5 mi Calm Calm - N/A   Overcast
10:18 AM 60.8 °F 55.4 °F 82% 30.09 in 1.8 mi West 3.5 mph - N/A   Haze
10:46 AM 64.4 °F 55.4 °F 73% 30.08 in 2.0 mi Calm Calm - N/A   Haze
10:53 AM 64.0 °F 55.9 °F 75% 30.07 in 2.0 mi Calm Calm - N/A   Haze
11:51 AM 69.8 °F 57.2 °F 64% 30.06 in 3.0 mi Variable 4.6 mph - N/A   Haze
11:53 AM 69.1 °F 57.0 °F 65% 30.06 in 3.0 mi WSW 5.8 mph - N/A   Haze
12:53 PM 70.0 °F 55.9 °F 61% 30.03 in 4.0 mi West 10.4 mph - N/A   Haze
1:53 PM 64.9 °F 55.9 °F 73% 30.01 in 3.0 mi WNW 9.2 mph - N/A   Haze
2:35 PM 64.4 °F 57.2 °F 77% 30.00 in 2.5 mi WNW 8.1 mph - N/A   Haze
2:53 PM 64.9 °F 57.0 °F 75% 29.99 in 2.5 mi WNW 6.9 mph - N/A   Haze
3:17 PM 64.4 °F 57.2 °F 77% 30.00 in 3.0 mi West 8.1 mph - N/A   Haze
3:53 PM 66.0 °F 57.0 °F 73% 29.99 in 7.0 mi WNW 4.6 mph - N/A   Clear
4:53 PM 64.9 °F 57.0 °F 75% 29.98 in 9.0 mi West 6.9 mph - N/A   Clear
5:53 PM 64.9 °F 57.0 °F 75% 29.96 in 7.0 mi West 4.6 mph - N/A   Clear
6:53 PM 64.9 °F 57.0 °F 75% 29.97 in 10.0 mi Calm Calm - N/A   Clear
7:53 PM 64.0 °F 57.0 °F 78% 29.97 in 9.0 mi Calm Calm - N/A   Clear
8:53 PM 64.0 °F 57.0 °F 78% 29.98 in 9.0 mi Calm Calm - N/A   Clear
9:53 PM 63.0 °F 55.9 °F 78% 29.99 in 8.0 mi Calm Calm - N/A   Clear
10:53 PM 63.0 °F 57.0 °F 81% 29.99 in 8.0 mi Calm Calm - N/A   Clear
11:53 PM 61.0 °F 55.9 °F 83% 29.98 in 7.0 mi Calm Calm - N/A   Clear